Location: Hylvaty SDH
(49.9612°N, 16.4057°E)
Time: 03:26:20
(UTC+01:00)

Tiros 1 despin weight - Pass Details

Date: 18 January 2021
Orbit: 593 x 642 km, 48.2° (Epoch: 24 February)

Event Time Altitude Azimuth Distance (km) Brightness Sun altitude
Rises 17:59:58 0° 248° (WSW) 2,853 ? -14.7°
Reaches altitude 10° 18:02:18 10° 245° (WSW) 1,944 ? -15.1°
Maximum altitude 18:06:40 59° 167° (SSE) 693 ? -15.7°
Enters shadow 18:08:50 28° 98° (E) 1,130 ? -16.1°
